EW8528 Weather Reports


time (UTC)temp
C
wind
direction
speed
KPH
gust
KPH
rain 1hr
cm
rain 24hr
cm
rain mn
cm
humidity
%
barometer
mb
20260507201547 18 82 3.2 11.3 0.00 0.46 0.33 32 1004.7
20260507200047 17 182 4.8 11.3 0.00 0.46 0.33 36 1004.9
20260507194546 17 126 3.2 17.7 0.00 0.51 0.33 29 1005.0
20260507193044 17 176 4.8 12.9 0.00 0.51 0.33 31 1005.1
20260507191543 17 200 6.4 16.1 0.00 0.51 0.33 32 1005.2
20260507190100 18 235 3.2 14.5 0.00 0.51 0.33 28 1005.4
20260507184548 18 152 3.2 14.5 0.00 0.51 0.33 31 1005.5
20260507183051 17 127 4.8 14.5 0.00 0.51 0.33 31 1005.7
20260507181551 17 131 4.8 16.1 0.00 0.51 0.33 36 1005.7
20260507180050 17 92 3.2 14.5 0.00 0.51 0.33 38 1005.8
20260507174542 17 72 3.2 17.7 0.00 0.51 0.33 41 1005.8
20260507173055 17 86 6.4 16.1 0.00 0.51 0.33 39 1005.7
20260507171546 17 201 6.4 17.7 0.00 0.51 0.33 42 1005.8
20260507170052 16 160 4.8 16.1 0.00 0.51 0.33 43 1005.9
20260507164549 16 172 3.2 12.9 0.00 0.51 0.33 47 1006.2
20260507163049 16 125 1.6 9.7 0.00 0.51 0.33 52 1006.2
20260507161552 16 156 6.4 14.5 0.00 0.51 0.33 52 1006.6
20260507160054 15 0 3.2 9.7 0.00 0.51 0.33 56 1006.6
20260507154544 15 213 3.2 12.9 0.00 0.51 0.33 54 1006.8
20260507153052 15 194 3.2 17.7 0.00 0.51 0.33 58 1006.9
20260507151549 15 142 3.2 14.5 0.00 0.51 0.33 56 1007.0
20260507150049 14 148 1.6 14.5 0.00 0.51 0.33 58 1007.2
20260507144550 14 104 1.6 8.0 0.00 0.51 0.33 58 1007.3
20260507143051 14 131 3.2 11.3 0.00 0.51 0.33 56 1007.5
20260507141559 13 127 0.0 8.0 0.00 0.51 0.33 58 1007.5
20260507140107 13 115 1.6 11.3 0.00 0.51 0.33 61 1007.4
20260507134547 12 49 0.0 11.3 0.00 0.51 0.33 63 1007.5
20260507133044 12 149 4.8 14.5 0.00 0.51 0.33 65 1007.5
20260507131601 11 81 1.6 9.7 0.00 0.51 0.33 69 1007.8
20260507130100 11 127 3.2 11.3 0.00 0.51 0.33 79 1007.7
20260507124603 10 297 4.8 12.9 0.00 0.51 0.33 81 1008.0
20260507123057 10 127 0.0 8.0 0.00 0.51 0.33 88 1008.0
20260507121549 10 142 0.0 8.0 0.00 0.51 0.33 91 1008.0
20260507120054 9 0 1.6 6.4 0.00 0.51 0.33 92 1007.7
20260507114550 8 0 0.0 3.2 0.00 0.51 0.33 92 1007.9
20260507113049 8 139 0.0 3.2 0.00 0.51 0.33 92 1007.6
20260507111548 8 110 0.0 4.8 0.00 0.51 0.33 92 1007.7
20260507110051 8 138 0.0 4.8 0.03 0.51 0.33 92 1007.4
20260507104551 8 0 0.0 0.0 0.05 0.51 0.33 93 1007.8
20260507103047 8 0 0.0 1.6 0.08 0.51 0.33 92 1007.8
20260507101549 8 0 0.0 1.6 0.13 0.51 0.33 92 1007.2
20260507100045 8 0 0.0 6.4 0.18 0.48 0.30 91 1007.1
20260507094546 8 86 0.0 8.0 0.20 0.46 0.28 90 1006.9
20260507093050 9 141 3.2 11.3 0.18 0.43 0.25 90 1006.8
20260507091549 9 146 1.6 6.4 0.15 0.38 0.20 90 1006.9
20260507090048 10 148 3.2 9.7 0.08 0.30 0.13 89 1007.3
20260507084553 10 0 1.6 8.0 0.03 0.25 0.08 89 1007.3
20260507083055 10 0 0.0 6.4 0.05 0.25 0.08 88 1006.7
20260507081548 11 131 3.2 9.7 0.03 0.23 0.05 88 1006.4
20260507080113 11 167 3.2 9.7 0.03 0.23 0.05 90 1006.8
20260507074547 11 0 0.0 6.4 0.03 0.23 0.05 87 1006.5
20260507073050 11 123 1.6 6.4 0.00 0.20 0.03 84 1006.5
20260507071600 12 139 1.6 6.4 0.00 0.20 0.03 83 1005.7
20260507070049 12 145 1.6 6.4 0.00 0.20 0.03 82 1005.8
20260507064556 12 135 1.6 9.7 0.00 0.20 0.03 83 1005.8
20260507063051 12 161 3.2 11.3 0.00 0.20 0.03 88 1005.8
20260507061550 13 130 1.6 4.8 0.03 0.20 0.03 88 1005.6
20260507060052 13 130 0.0 6.4 0.03 0.20 0.03 88 1005.9
20260507054550 13 146 0.0 11.3 0.03 0.20 0.03 88 1006.0
20260507053050 13 124 1.6 9.7 0.03 0.20 0.03 88 1006.2
20260507051545 13 161 0.0 11.3 0.00 0.18 0.00 89 1005.7
20260507050045 14 154 1.6 9.7 0.00 0.18 0.00 92 1005.8
20260507044543 14 161 3.2 8.0 0.00 0.18 0.00 92 1006.0
20260507043048 15 156 1.6 8.0 0.00 0.18 0.00 93 1005.8
20260507041558 15 87 0.0 3.2 0.00 0.18 0.00 94 1005.9
20260507040104 15 113 0.0 1.6 0.00 0.18 0.00 94 1006.1
20260507034556 15 155 0.0 3.2 0.00 0.18 0.18 94 1006.0
20260507033045 15 0 0.0 11.3 0.00 0.18 0.18 93 1006.0
20260507031548 15 328 1.6 6.4 0.00 0.18 0.18 93 1005.6
20260507030054 15 0 0.0 6.4 0.00 0.18 0.18 93 1005.4
20260507024548 15 73 1.6 6.4 0.00 0.18 0.18 94 1005.7
20260507023048 14 0 0.0 6.4 0.00 0.18 0.18 94 1005.6
20260507021548 14 89 0.0 3.2 0.00 0.18 0.18 94 1005.8
20260507020053 14 22 1.6 4.8 0.00 0.18 0.18 94 1005.6
20260507014600 14 91 1.6 8.0 0.00 0.18 0.18 94 1005.6
20260507013048 14 108 1.6 9.7 0.00 0.18 0.18 94 1005.8
20260507011557 14 65 1.6 8.0 0.00 0.18 0.18 94 1006.0
20260507010052 14 220 3.2 8.0 0.00 0.18 0.18 94 1006.1
20260507004553 13 110 1.6 8.0 0.03 0.18 0.18 93 1006.0
20260507003052 14 335 1.6 9.7 0.03 0.18 0.18 93 1006.1
20260507001559 14 0 1.6 9.7 0.05 0.18 0.18 93 1006.0
20260507000057 14 71 1.6 9.7 0.08 0.18 0.18 93 1005.7
20260506234555 14 0 0.0 9.7 0.05 0.15 0.15 93 1006.0
20260506233052 14 0 0.0 6.4 0.05 0.15 0.15 93 1005.7
20260506231551 15 318 1.6 6.4 0.03 0.13 0.13 92 1005.7
20260506230048 15 0 1.6 8.0 0.00 0.10 0.10 92 1005.8
20260506224554 15 75 1.6 11.3 0.00 0.10 0.10 92 1005.9
20260506223042 15 343 3.2 12.9 0.03 0.10 0.10 91 1006.1
20260506221549 15 12 3.2 12.9 0.03 0.10 0.10 91 1006.1
20260506220058 15 29 3.2 12.9 0.03 0.10 0.10 90 1006.2
20260506214547 16 79 0.0 14.5 0.03 0.10 0.10 88 1006.6
20260506213052 16 0 1.6 11.3 0.03 0.08 0.08 87 1006.7
20260506211548 16 58 3.2 14.5 0.03 0.08 0.08 86 1006.5
20260506210100 16 320 1.6 16.1 0.03 0.08 0.08 86 1006.7
20260506204554 16 60 3.2 17.7 0.05 0.08 0.08 85 1007.0
20260506203139 17 329 1.6 14.5 0.03 0.05 0.05 82 1006.9